This demonstration page uses our WeatherBlox Daily Observations layout. Learn more.

Left ArrowRight Arrow

Hourly Observations for February 24, 2015

Temp ( °F °C ) Dew Point ( °F °C ) Humidity (%) Winds ( mph kmh ) Pressure ( in mb ) Visibility ( mi km ) Precip ( " mm )
12:53 am 00:53 Clear 53 11.7 14 -10 21 21 NNW 8 13 30.30 1026 10 16 0.00 0.00
1:53 am 01:53 Clear 52 11.1 12 -11.1 20 20 NNW 7 11 30.31 1026 10 16 0.00 0.00
2:53 am 02:53 Clear 50 10 14 -10 24 24 N 8 13 30.30 1026 10 16 0.00 0.00
3:53 am 03:53 Clear 46 7.8 17 -8.3 31 31 WNW 5 7 30.30 1026 10 16 0.00 0.00
4:53 am 04:53 Clear 46 7.8 18 -7.8 32 32 NW 7 11 30.31 1027 10 16 0.00 0.00
5:53 am 05:53 Clear 46 7.8 17 -8.3 31 31 NW 7 11 30.32 1027 10 16 0.00 0.00
6:53 am 06:53 Sunny 39 3.9 20 -6.7 46 46 Calm 30.35 1028 10 16 0.00 0.00
7:53 am 07:53 Sunny 41 5 22 -5.6 47 47 NE 3 6 30.36 1028 10 16 0.00 0.00
8:53 am 08:53 Sunny 47 8.3 22 -5.6 37 37 Calm 30.35 1028 10 16 0.00 0.00
9:53 am 09:53 Sunny 54 12.2 25 -3.9 33 33 Calm 30.34 1027 10 16 0.00 0.00
10:53 am 10:53 Sunny 63 17.2 16 -8.9 16 16 NNE 5 7 30.31 1026 10 16 0.00 0.00
11:53 am 11:53 Sunny 67 19.4 19 -7.2 16 16 NNE 3 6 30.28 1026 10 16 0.00 0.00
12:53 pm 12:53 Sunny 69 20.6 16 -8.9 13 13 Calm 30.24 1024 10 16 0.00 0.00
1:53 pm 13:53 Sunny 71 21.7 20 -6.7 14 14 SE 6 9 30.22 1023 10 16 0.00 0.00
2:53 pm 14:53 Sunny 72 22.2 22 -5.6 15 15 ESE 5 7 30.20 1023 10 16 0.00 0.00
3:53 pm 15:53 Sunny 71 21.7 22 -5.6 16 16 Calm 30.18 1022 10 16 0.00 0.00
4:53 pm 16:53 Sunny 71 21.7 24 -4.4 17 17 Calm 30.17 1022 10 16 0.00 0.00
5:53 pm 17:53 Sunny 64 17.8 26 -3.3 24 24 Calm 30.20 1023 10 16 0.00 0.00
6:53 pm 18:53 Clear 58 14.4 30 -1.1 35 35 S 7 11 30.22 1023 10 16 0.00 0.00
7:53 pm 19:53 Clear 56 13.3 28 -2.2 34 34 Calm 30.26 1025 10 16 0.00 0.00
8:53 pm 20:53 Clear 50 10 32 0 50 50 Calm 30.28 1025 10 16 0.00 0.00
9:53 pm 21:53 Clear 47 8.3 30 -1.1 52 52 Calm 30.29 1026 10 16 0.00 0.00
10:53 pm 22:53 Clear 43 6.1 33 0.6 68 68 NNE 3 6 30.30 1026 10 16 0.00 0.00
11:53 pm 23:53 Clear 44 6.7 32 0 63 63 Calm 30.30 1026 10 16 0.00 0.00

Powered by AerisWeather